This demonstration page uses our WeatherBlox Daily Observations layout. Learn more.

Left ArrowRight Arrow

38.88101, -77.10428

Hourly Observations for May 26, 2016

Temp ( °F °C ) Dew Point ( °F °C ) Humidity (%) Winds ( mph kmh ) Pressure ( in mb ) Visibility ( mi km ) Precip ( " mm )
12:52 am 00:52 Mostly Cloudy 65 18.3 61 16.1 87 87 S 8 13 30.11 1020 10 16 N/A
1:52 am 01:52 Mostly Cloudy 66 18.9 61 16.1 84 84 S 6 9 30.11 1020 10 16 N/A
2:52 am 02:52 Partly Cloudy 64 17.8 61 16.1 90 90 SSW 6 9 30.10 1019 10 16 N/A
3:52 am 03:52 Partly Cloudy 63 17.2 61 16.1 93 93 S 5 7 30.11 1020 10 16 N/A
4:52 am 04:52 Partly Cloudy 64 17.8 61 16.1 90 90 S 3 6 30.11 1020 10 16 N/A
5:52 am 05:52 Mostly Cloudy 63 17.2 61 16.1 93 93 N N/A 30.12 1020 9 14 N/A
6:52 am 06:52 Cloudy 64 17.8 62 16.7 93 93 N N/A 30.13 1020 9 14 N/A
7:52 am 07:52 Cloudy 67 19.4 61 16.1 81 81 S 5 7 30.14 1021 10 16 N/A
8:52 am 08:52 Cloudy 69 20.6 61 16.1 76 76 S 8 13 30.13 1020 10 16 N/A
9:52 am 09:52 Cloudy 73 22.8 62 16.7 69 69 S 9 15 30.12 1020 10 16 N/A
10:52 am 10:52 Cloudy 77 25 61 16.1 58 58 S 10 17 30.10 1019 10 16 N/A
11:52 am 11:52 Mostly Cloudy 81 27.2 63 17.2 54 54 SSE 8 13 30.09 1019 10 16 N/A
12:52 pm 12:52 Mostly Cloudy 82 27.8 65 18.3 56 56 S 13 20 30.08 1019 10 16 N/A
1:52 pm 13:52 Mostly Cloudy 84 28.9 66 18.9 55 55 S 13 20 30.06 1018 10 16 N/A
2:52 pm 14:52 Mostly Cloudy 88 31.1 65 18.3 46 46 SW 10 17 30.05 1018 10 16 N/A
3:52 pm 15:52 Mostly Cloudy 86 30 66 18.9 51 51 S 10 17 30.04 1017 10 16 N/A
4:52 pm 16:52 Mostly Cloudy 88 31.1 64 17.8 45 45 S 13 20 30.02 1017 10 16 N/A
5:52 pm 17:52 Partly Cloudy 83 28.3 64 17.8 53 53 S 10 17 30.00 1016 10 16 N/A
6:52 pm 18:52 Partly Cloudy 80 26.7 65 18.3 60 60 S 9 15 30.01 1016 10 16 N/A
7:52 pm 19:52 Mostly Cloudy 80 26.7 65 18.3 60 60 S 8 13 30.01 1016 10 16 N/A
8:52 pm 20:52 Partly Cloudy 79 26.1 64 17.8 60 60 S 8 13 30.02 1017 10 16 N/A
9:52 pm 21:52 Mostly Clear 76 24.4 65 18.3 69 69 S 9 15 30.03 1017 10 16 N/A
10:52 pm 22:52 Mostly Clear 75 23.9 64 17.8 69 69 S 7 11 30.04 1017 10 16 N/A
11:52 pm 23:52 Mostly Clear 73 22.8 64 17.8 74 74 S 9 15 30.04 1017 10 16 N/A

Powered by AerisWeather